,,,PA_Meas_PMT16A,,PR_Meas_QMR101_102,,RH_Meas_QMH101,,SR_Meas_QMS101,,TA_Meas_QMH101,,GenWind,,GenWind,
date,time,status,PA,status,PR,status,RH,status,SR,status,TA,status,DirAvg,status,SpdAvg,
2014-10-30, 00:00:04,VALID,1009.37,VALID,0,INVALID,117.696,VALID,0,VALID,23.694,VALID,3,VALID,0.0746094,
2014-10-30, 00:01:04,VALID,1009.38,VALID,0,INVALID,117.673,VALID,0,VALID,23.694,VALID,3,VALID,0,
2014-10-30, 00:02:04,VALID,1009.37,VALID,0,INVALID,117.673,VALID,0,VALID,23.694,VALID,3,VALID,0,
2014-10-30, 00:03:04,VALID,1009.37,VALID,0,INVALID,117.696,VALID,0,VALID,23.694,VALID,3,VALID,0.194531,
2014-10-30, 00:04:04,VALID,1009.39,VALID,0,INVALID,117.78,VALID,0,VALID,23.6745,VALID,3,VALID,0.226953,
2014-10-30, 00:05:04,VALID,1009.4,VALID,0,INVALID,117.81,VALID,0,VALID,23.6745,VALID,3,VALID,0,
2014-10-30, 00:06:04,VALID,1009.4,VALID,0,INVALID,117.894,VALID,0,VALID,23.6745,VALID,3,VALID,0,
2014-10-30, 00:07:04,VALID,1009.39,VALID,0,INVALID,117.955,VALID,0,VALID,23.655,VALID,3,VALID,0,
2014-10-30, 00:08:04,VALID,1009.39,VALID,0,INVALID,118.001,VALID,0,VALID,23.6745,VALID,3,VALID,0,
2014-10-30, 00:09:04,VALID,1009.38,VALID,0,INVALID,118.077,VALID,0,VALID,23.655,VALID,3,VALID,0,
2014-10-30, 00:10:04,VALID,1009.34,VALID,0,INVALID,118.527,VALID,0,VALID,23.6745,VALID,3,VALID,0,
2014-10-30, 00:11:04,VALID,1009.36,VALID,0,INVALID,118.596,VALID,0,VALID,23.6745,VALID,3,VALID,0,
2014-10-30, 00:12:04,VALID,1009.35,VALID,0,INVALID,118.725,VALID,0,VALID,23.6745,VALID,3,VALID,0,
2014-10-30, 00:13:04,VALID,1009.33,VALID,0,INVALID,118.87,VALID,0,VALID,23.6745,VALID,3,VALID,0,
2014-10-30, 00:14:04,VALID,1009.32,VALID,0,INVALID,118.893,VALID,0,VALID,23.655,VALID,3,VALID,0.133594,
2014-10-30, 00:15:04,VALID,1009.31,VALID,0,INVALID,119.023,VALID,0,VALID,23.655,VALID,3,VALID,0,
2014-10-30, 00:16:04,VALID,1009.32,VALID,0,INVALID,119.213,VALID,0,VALID,23.6338,VALID,3,VALID,0,
2014-10-30, 00:17:04,VALID,1009.28,VALID,0,INVALID,119.236,VALID,0,VALID,23.655,VALID,3,VALID,0,
2014-10-30, 00:18:04,VALID,1009.3,VALID,0,INVALID,119.236,VALID,0,VALID,23.6356,VALID,3,VALID,0,
2014-10-30, 00:19:04,VALID,1009.28,VALID,0,INVALID,119.343,VALID,0,VALID,23.6356,VALID,3,VALID,0.310937,
2014-10-30, 00:20:04,VALID,1009.29,VALID,0,INVALID,119.526,VALID,0,VALID,23.6356,VALID,3,VALID,0.301562,
2014-10-30, 00:21:04,VALID,1009.25,VALID,0,INVALID,119.671,VALID,0,VALID,23.6356,VALID,3,VALID,0.423828,
2014-10-30, 00:22:04,VALID,1009.28,VALID,0,INVALID,119.717,VALID,0,VALID,23.6356,VALID,3,VALID,0.417188,
2014-10-30, 00:23:04,VALID,1009.26,VALID,0,INVALID,120.083,VALID,0,VALID,23.6161,VALID,3,VALID,0.607422,
2014-10-30, 00:24:04,VALID,1009.31,VALID,0,INVALID,120.273,VALID,0,VALID,23.6356,VALID,3,VALID,0.150781,
2014-10-30, 00:25:04,VALID,1009.29,VALID,0,INVALID,120.38,VALID,0,VALID,23.6356,VALID,3,VALID,0.202344,
2014-10-30, 00:26:04,VALID,1009.3,VALID,0,INVALID,120.639,VALID,0,VALID,23.6356,VALID,3,VALID,0.344531,
2014-10-30, 00:27:04,VALID,1009.29,VALID,0,INVALID,120.96,VALID,0,VALID,23.6745,VALID,3,VALID,0.260938,
2014-10-30, 00:28:04,VALID,1009.28,VALID,0,INVALID,121.211,VALID,0,VALID,23.7135,VALID,3,VALID,0.00195313,
2014-10-30, 00:29:04,VALID,1009.27,VALID,0,INVALID,121.204,VALID,0,VALID,23.7135,VALID,3,VALID,0,
2014-10-30, 00:30:04,VALID,1009.24,VALID,0,INVALID,121.082,VALID,0,VALID,23.7348,VALID,3,VALID,0,
2014-10-30, 00:31:04,VALID,1009.25,VALID,0,INVALID,120.883,VALID,0,VALID,23.7135,VALID,3,VALID,0,
2014-10-30, 00:32:04,VALID,1009.22,VALID,0,INVALID,120.639,VALID,0,VALID,23.733,VALID,3,VALID,0,
2014-10-30, 00:33:04,VALID,1009.2,VALID,0,INVALID,120.456,VALID,0,VALID,23.7117,VALID,3,VALID,0,
2014-10-30, 00:34:04,VALID,1009.18,VALID,0,INVALID,120.319,VALID,0,VALID,23.733,VALID,3,VALID,0,
2014-10-30, 00:35:04,VALID,1009.12,VALID,0,INVALID,120.212,VALID,0,VALID,23.733,VALID,3,VALID,0.267188,
2014-10-30, 00:36:04,VALID,1009.1,VALID,0,INVALID,120.235,VALID,0,VALID,23.733,VALID,3,VALID,0,
2014-10-30, 00:37:04,VALID,1009.08,VALID,0,INVALID,120.182,VALID,0,VALID,23.7135,VALID,3,VALID,0,
2014-10-30, 00:38:04,VALID,1009.07,VALID,0,INVALID,119.968,VALID,0,VALID,23.7135,VALID,3,VALID,0.151562,
2014-10-30, 00:39:04,VALID,1009.08,VALID,0,INVALID,119.64,VALID,0,VALID,23.694,VALID,3,VALID,0.213672,
2014-10-30, 00:40:04,VALID,1009.1,VALID,0,INVALID,119.297,VALID,0,VALID,23.7135,VALID,3,VALID,0.269531,
2014-10-30, 00:41:04,VALID,1009.12,VALID,0,INVALID,119.091,VALID,0,VALID,23.694,VALID,3,VALID,0,
2014-10-30, 00:42:04,VALID,1009.12,VALID,0,INVALID,118.962,VALID,0,VALID,23.6922,VALID,3,VALID,0.278516,
2014-10-30, 00:43:04,VALID,1009.15,VALID,0,INVALID,119.046,VALID,0,VALID,23.694,VALID,3,VALID,0.13125,
2014-10-30, 00:44:04,VALID,1009.14,VALID,0,INVALID,119.122,VALID,0.112112,VALID,23.694,VALID,3,VALID,0.116797,
2014-10-30, 00:45:04,VALID,1009.15,VALID,0,INVALID,119.297,VALID,0,VALID,23.694,VALID,3,VALID,0.355078,
2014-10-30, 00:46:04,VALID,1009.11,VALID,0,INVALID,119.229,VALID,0,VALID,23.694,VALID,3,VALID,0.327734,
2014-10-30, 00:47:04,VALID,1009.11,VALID,0,INVALID,119.328,VALID,0.112112,VALID,23.6727,VALID,3,VALID,0.512109,
2014-10-30, 00:48:04,VALID,1009.1,VALID,0,INVALID,119.648,VALID,0,VALID,23.694,VALID,3,VALID,0.687109,
2014-10-30, 00:49:04,VALID,1009.11,VALID,0,INVALID,119.587,VALID,0.112112,VALID,23.694,VALID,3,VALID,0.580469,
2014-10-30, 00:50:04,VALID,1009.13,VALID,0,INVALID,119.381,VALID,0,VALID,23.6532,VALID,3,VALID,0.135937,
2014-10-30, 00:51:04,VALID,1009.14,VALID,0,INVALID,119.435,VALID,0,VALID,23.6745,VALID,3,VALID,0.45,
2014-10-30, 00:52:04,VALID,1009.14,VALID,0,INVALID,119.229,VALID,0,VALID,23.655,VALID,3,VALID,0.403125,
2014-10-30, 00:53:04,VALID,1009.11,VALID,0,INVALID,119.152,VALID,0,VALID,23.655,VALID,3,VALID,0.400781,
2014-10-30, 00:54:04,VALID,1009.11,VALID,0,INVALID,119.13,VALID,0,VALID,23.6356,VALID,4,VALID,0.878516,
2014-10-30, 00:55:04,VALID,1009.1,VALID,0,INVALID,119.13,VALID,0.112112,VALID,23.6356,VALID,3,VALID,0.811719,
2014-10-30, 00:56:04,VALID,1009.08,VALID,0,INVALID,119.038,VALID,0,VALID,23.6356,VALID,23,VALID,0.805469,
2014-10-30, 00:57:04,VALID,1009.1,VALID,0,INVALID,119.091,VALID,0,VALID,23.6161,VALID,66,VALID,1.37148,
2014-10-30, 00:58:04,VALID,1009.09,VALID,0,INVALID,119.069,VALID,0.112112,VALID,23.6161,VALID,80,VALID,0.753906,
2014-10-30, 00:59:04,VALID,1009.08,VALID,0,INVALID,119.084,VALID,0.112112,VALID,23.6356,VALID,80,VALID,0.616406,
2014-10-30, 01:00:04,VALID,1009.11,VALID,0,INVALID,119.122,VALID,0.112112,VALID,23.6356,VALID,80,VALID,0.377344,
2014-10-30, 01:01:04,VALID,1009.12,VALID,0,INVALID,119.099,VALID,0.112112,VALID,23.6143,VALID,80,VALID,0.0636719,
2014-10-30, 01:02:04,VALID,1009.13,VALID,0,INVALID,119.023,VALID,0.112112,VALID,23.6143,VALID,80,VALID,0.335156,
2014-10-30, 01:03:04,VALID,1009.14,VALID,0,INVALID,119.015,VALID,0,VALID,23.5948,VALID,80,VALID,0.00234375,
2014-10-30, 01:04:04,VALID,1009.13,VALID,0,INVALID,118.969,VALID,0,VALID,23.6161,VALID,80,VALID,0.210547,
2014-10-30, 01:05:04,VALID,1009.16,VALID,0,INVALID,118.916,VALID,0,VALID,23.6161,VALID,80,VALID,0.517969,
2014-10-30, 01:06:04,VALID,1009.17,VALID,0,INVALID,118.962,VALID,0.112112,VALID,23.5948,VALID,80,VALID,0.471484,
2014-10-30, 01:07:04,VALID,1009.21,VALID,0,INVALID,118.924,VALID,0,VALID,23.5966,VALID,80,VALID,0.476953,
2014-10-30, 01:08:04,VALID,1009.19,VALID,0,INVALID,119.145,VALID,0,VALID,23.5753,VALID,80,VALID,0.728906,
2014-10-30, 01:09:04,VALID,1009.2,VALID,0,INVALID,119.465,VALID,0.112112,VALID,23.5558,VALID,80,VALID,0.412891,
2014-10-30, 01:10:04,VALID,1009.18,VALID,0,INVALID,119.778,VALID,0,VALID,23.5966,VALID,80,VALID,0.495703,
2014-10-30, 01:11:04,VALID,1009.17,VALID,0,INVALID,120.189,VALID,0.112112,VALID,23.5753,VALID,80,VALID,0.478906,
2014-10-30, 01:12:04,VALID,1009.21,VALID,0,INVALID,120.99,VALID,0.112112,VALID,23.5948,VALID,80,VALID,0.701563,
2014-10-30, 01:13:04,VALID,1009.19,VALID,0,INVALID,121.463,VALID,0,VALID,23.6161,VALID,80,VALID,0.826953,
2014-10-30, 01:14:04,VALID,1009.19,VALID,0,INVALID,121.432,VALID,0,VALID,23.6143,VALID,80,VALID,0.615625,
2014-10-30, 01:15:04,VALID,1009.21,VALID,0,INVALID,121.455,VALID,0,VALID,23.6356,VALID,80,VALID,0.403125,
2014-10-30, 01:16:04,VALID,1009.19,VALID,0,INVALID,121.394,VALID,0.112112,VALID,23.6356,VALID,80,VALID,0.827344,
2014-10-30, 01:17:04,VALID,1009.2,VALID,0,INVALID,121.242,VALID,0,VALID,23.6161,VALID,80,VALID,0.282813,
2014-10-30, 01:18:04,VALID,1009.2,VALID,0,INVALID,121.249,VALID,0,VALID,23.6161,VALID,80,VALID,0.595703,
2014-10-30, 01:19:04,VALID,1009.16,VALID,0,INVALID,121.463,VALID,0,VALID,23.6356,VALID,80,VALID,0.371484,
2014-10-30, 01:20:04,VALID,1009.14,VALID,0,INVALID,121.852,VALID,0,VALID,23.6356,VALID,80,VALID,0.750391,
2014-10-30, 01:21:04,VALID,1009.13,VALID,0,INVALID,122.149,VALID,0,VALID,23.6356,VALID,80,VALID,0.623438,
2014-10-30, 01:22:04,VALID,1009.15,VALID,0,INVALID,122.332,VALID,0,VALID,23.6763,VALID,80,VALID,0.542578,
2014-10-30, 01:23:04,VALID,1009.12,VALID,0,INVALID,122.546,VALID,0,VALID,23.6338,VALID,80,VALID,0.348828,
2014-10-30, 01:24:04,VALID,1009.17,VALID,0,INVALID,122.744,VALID,0,VALID,23.6745,VALID,80,VALID,0.891797,
2014-10-30, 01:25:04,VALID,1009.13,VALID,0,INVALID,122.859,VALID,0,VALID,23.6532,VALID,80,VALID,0.686719,
2014-10-30, 01:26:04,VALID,1009.12,VALID,0,INVALID,122.996,VALID,0.112112,VALID,23.6745,VALID,80,VALID,0.481641,
2014-10-30, 01:27:04,VALID,1009.15,VALID,0,INVALID,123.194,VALID,0,VALID,23.694,VALID,80,VALID,0.671875,
2014-10-30, 01:28:04,VALID,1009.12,VALID,0,INVALID,123.286,VALID,0.112112,VALID,23.6922,VALID,80,VALID,0.4875,
2014-10-30, 01:29:04,VALID,1009.09,VALID,0,INVALID,123.217,VALID,0,VALID,23.6727,VALID,80,VALID,0.822656,
2014-10-30, 01:30:04,VALID,1009.09,VALID,0,INVALID,123.24,VALID,0,VALID,23.7135,VALID,80,VALID,0.435937,
2014-10-30, 01:31:04,VALID,1009.05,VALID,0,INVALID,123.255,VALID,0,VALID,23.7135,VALID,80,VALID,0.523438,
2014-10-30, 01:32:04,VALID,1009.05,VALID,0,INVALID,123.362,VALID,0,VALID,23.7135,VALID,80,VALID,0.294141,
2014-10-30, 01:33:04,VALID,1009.03,VALID,0,INVALID,123.56,VALID,0,VALID,23.7117,VALID,80,VALID,0.262109,
2014-10-30, 01:34:04,VALID,1009.04,VALID,0,INVALID,123.758,VALID,0,VALID,23.7507,VALID,80,VALID,0,
2014-10-30, 01:35:04,VALID,1009.06,VALID,0,INVALID,123.987,VALID,0,VALID,23.7914,VALID,80,VALID,0.191797,
2014-10-30, 01:36:04,VALID,1009.05,VALID,0,INVALID,124.254,VALID,0,VALID,23.7896,VALID,80,VALID,0.0046875,
2014-10-30, 01:37:04,VALID,1009.07,VALID,0,INVALID,124.048,VALID,0,VALID,23.7914,VALID,80,VALID,0,
2014-10-30, 01:38:04,VALID,1009.11,VALID,0,INVALID,123.88,VALID,0,VALID,23.7914,VALID,80,VALID,0.00546875,
2014-10-30, 01:39:04,VALID,1009.09,VALID,0,INVALID,123.842,VALID,0,VALID,23.7896,VALID,80,VALID,0.286328,
2014-10-30, 01:40:04,VALID,1009.13,VALID,0,INVALID,123.743,VALID,0,VALID,23.8091,VALID,80,VALID,0.257422,
2014-10-30, 01:41:04,VALID,1009.13,VALID,0,INVALID,123.514,VALID,0.112112,VALID,23.8091,VALID,80,VALID,0.545703,
2014-10-30, 01:42:04,VALID,1009.15,VALID,0,INVALID,123.461,VALID,0,VALID,23.8286,VALID,80,VALID,0.440625,
2014-10-30, 01:43:04,VALID,1009.17,VALID,0,INVALID,123.331,VALID,0,VALID,23.8499,VALID,80,VALID,0.603906,
2014-10-30, 01:44:04,VALID,1009.15,VALID,0,INVALID,123.11,VALID,0,VALID,23.8694,VALID,80,VALID,0.592188,
2014-10-30, 01:45:04,VALID,1009.14,VALID,0,INVALID,122.805,VALID,0,VALID,23.8694,VALID,80,VALID,0.674609,
2014-10-30, 01:46:04,VALID,1009.13,VALID,0,INVALID,122.226,VALID,0,VALID,23.8694,VALID,80,VALID,0.503516,
2014-10-30, 01:47:04,VALID,1009.11,VALID,0,INVALID,121.814,VALID,0,VALID,23.8694,VALID,80,VALID,0.579297,
2014-10-30, 01:48:04,VALID,1009.11,VALID,0,INVALID,121.387,VALID,0,VALID,23.8481,VALID,80,VALID,0.882031,
2014-10-30, 01:49:04,VALID,1009.07,VALID,0,INVALID,120.838,VALID,0,VALID,23.8694,VALID,80,VALID,0.798437,
2014-10-30, 01:50:04,VALID,1009.07,VALID,0,INVALID,120.403,VALID,0,VALID,23.8694,VALID,80,VALID,0.819922,
2014-10-30, 01:51:04,VALID,1009.05,VALID,0,INVALID,120.197,VALID,0,VALID,23.8499,VALID,80,VALID,0.68125,
2014-10-30, 01:52:04,VALID,1009.04,VALID,0,INVALID,120.022,VALID,0,VALID,23.8499,VALID,80,VALID,1.33047,
2014-10-30, 01:53:04,VALID,1009.03,VALID,0,INVALID,119.74,VALID,0,VALID,23.8304,VALID,80,VALID,1.24609,
2014-10-30, 01:54:04,VALID,1009.01,VALID,0,INVALID,119.679,VALID,0,VALID,23.8091,VALID,80,VALID,0.824609,
2014-10-30, 01:55:04,VALID,1008.99,VALID,0,INVALID,119.877,VALID,0,VALID,23.8304,VALID,80,VALID,0.694531,
2014-10-30, 01:56:04,VALID,1008.99,VALID,0,INVALID,120.106,VALID,0,VALID,23.7914,VALID,80,VALID,0.352734,
2014-10-30, 01:57:04,VALID,1008.92,VALID,0,INVALID,120.235,VALID,0,VALID,23.7914,VALID,80,VALID,0.692969,
2014-10-30, 01:58:04,VALID,1008.95,VALID,0,INVALID,120.441,VALID,0,VALID,23.7701,VALID,80,VALID,0.447656,
2014-10-30, 01:59:04,VALID,1008.91,VALID,0,INVALID,120.914,VALID,0,VALID,23.7914,VALID,80,VALID,0.46875,
2014-10-30, 02:00:04,VALID,1008.91,VALID,0,INVALID,121.181,VALID,0,VALID,23.772,VALID,80,VALID,0.792578,
2014-10-30, 02:01:04,VALID,1008.91,VALID,0,INVALID,121.234,VALID,0.112112,VALID,23.772,VALID,80,VALID,0.373437,
2014-10-30, 02:02:04,VALID,1008.88,VALID,0,INVALID,121.188,VALID,0,VALID,23.7525,VALID,80,VALID,0.494922,
2014-10-30, 02:03:04,VALID,1008.91,VALID,0,INVALID,121.494,VALID,0,VALID,23.7525,VALID,80,VALID,0.00625,
2014-10-30, 02:04:04,VALID,1008.91,VALID,0,INVALID,121.738,VALID,0,VALID,23.733,VALID,80,VALID,0,
2014-10-30, 02:05:04,VALID,1008.91,VALID,0,INVALID,121.966,VALID,0,VALID,23.7117,VALID,80,VALID,0,
2014-10-30, 02:06:04,VALID,1008.91,VALID,0,INVALID,122.035,VALID,0,VALID,23.7135,VALID,80,VALID,0,
2014-10-30, 02:07:04,VALID,1008.93,VALID,0,INVALID,122.149,VALID,0,VALID,23.733,VALID,80,VALID,0,
2014-10-30, 02:08:04,VALID,1008.93,VALID,0,INVALID,122.416,VALID,0,VALID,23.7135,VALID,80,VALID,0.153516,
2014-10-30, 02:09:04,VALID,1008.96,VALID,0,INVALID,122.782,VALID,0,VALID,23.694,VALID,80,VALID,0.599609,
2014-10-30, 02:10:04,VALID,1008.97,VALID,0,INVALID,122.828,VALID,0,VALID,23.694,VALID,80,VALID,0.78125,
2014-10-30, 02:11:04,VALID,1008.98,VALID,0,INVALID,122.859,VALID,0,VALID,23.6532,VALID,80,VALID,0.416406,
2014-10-30, 02:12:04,VALID,1009.01,VALID,0,INVALID,123.103,VALID,0,VALID,23.655,VALID,80,VALID,0.572266,
2014-10-30, 02:13:04,VALID,1008.99,VALID,0,INVALID,123.652,VALID,0,VALID,23.655,VALID,80,VALID,0.496094,
2014-10-30, 02:14:04,VALID,1009.01,VALID,0,INVALID,124.17,VALID,0,VALID,23.6356,VALID,80,VALID,0.473437,
2014-10-30, 02:15:04,VALID,1009.01,VALID,0,INVALID,124.361,VALID,0,VALID,23.6161,VALID,80,VALID,0.271484,
2014-10-30, 02:16:04,VALID,1009.01,VALID,0,INVALID,124.529,VALID,0,VALID,23.5948,VALID,80,VALID,0.214844,
2014-10-30, 02:17:04,VALID,1008.99,VALID,0,INVALID,124.727,VALID,0,VALID,23.5966,VALID,80,VALID,0.0460938,
2014-10-30, 02:18:04,VALID,1009,VALID,0,INVALID,124.879,VALID,0,VALID,23.5966,VALID,80,VALID,0.411328,
2014-10-30, 02:19:04,VALID,1008.96,VALID,0,INVALID,125.055,VALID,0,VALID,23.5771,VALID,80,VALID,0,
2014-10-30, 02:20:04,VALID,1008.96,VALID,0,INVALID,125.352,VALID,0,VALID,23.5771,VALID,80,VALID,0.233594,
2014-10-30, 02:21:04,VALID,1008.93,VALID,0,INVALID,125.413,VALID,0,VALID,23.5771,VALID,80,VALID,0,
2014-10-30, 02:22:04,VALID,1008.93,VALID,0,INVALID,125.505,VALID,0,VALID,23.5576,VALID,80,VALID,0.0585938,
2014-10-30, 02:23:04,VALID,1008.9,VALID,0,INVALID,125.36,VALID,0,VALID,23.5576,VALID,80,VALID,0.244141,
2014-10-30, 02:24:04,VALID,1008.93,VALID,0,INVALID,125.261,VALID,0,VALID,23.5363,VALID,80,VALID,0.619531,
2014-10-30, 02:25:04,VALID,1008.92,VALID,0,INVALID,125.238,VALID,0,VALID,23.5381,VALID,80,VALID,0.226172,
2014-10-30, 02:26:04,VALID,1008.94,VALID,0,INVALID,125.299,VALID,0,VALID,23.5381,VALID,80,VALID,0.252344,
2014-10-30, 02:27:04,VALID,1008.98,VALID,0,INVALID,125.489,VALID,0,VALID,23.4974,VALID,80,VALID,0.619922,
2014-10-30, 02:28:04,VALID,1009,VALID,0,INVALID,125.68,VALID,0,VALID,23.4974,VALID,80,VALID,0.30625,
2014-10-30, 02:29:04,VALID,1009.02,VALID,0,INVALID,125.947,VALID,0,VALID,23.5186,VALID,80,VALID,0.224609,
2014-10-30, 02:30:04,VALID,1009,VALID,0,INVALID,126.176,VALID,0,VALID,23.4974,VALID,80,VALID,0.250391,
2014-10-30, 02:31:04,VALID,1009.04,VALID,0,INVALID,126.374,VALID,0,VALID,23.4974,VALID,80,VALID,0.233984,
2014-10-30, 02:32:04,VALID,1009.05,VALID,0,INVALID,126.832,VALID,0,VALID,23.5186,VALID,80,VALID,0.491016,
2014-10-30, 02:33:04,VALID,1009.06,VALID,0,INVALID,126.999,VALID,0,VALID,23.4974,VALID,80,VALID,0.665234,
2014-10-30, 02:34:04,VALID,1009.07,VALID,0,INVALID,127.045,VALID,0,VALID,23.4974,VALID,80,VALID,0.83125,
2014-10-30, 02:35:04,VALID,1009.09,VALID,0,INVALID,127.129,VALID,0,VALID,23.5186,VALID,80,VALID,0.603516,
2014-10-30, 02:36:04,VALID,1009.07,VALID,0,INVALID,127.312,VALID,0,VALID,23.5186,VALID,80,VALID,0.565625,
2014-10-30, 02:37:04,VALID,1009.1,VALID,0,INVALID,127.594,VALID,0,VALID,23.5186,VALID,80,VALID,0.371484,
2014-10-30, 02:38:04,VALID,1009.08,VALID,0,INVALID,127.853,VALID,0,VALID,23.5381,VALID,80,VALID,0.0898438,
2014-10-30, 02:39:04,VALID,1009.1,VALID,0,INVALID,128.09,VALID,0,VALID,23.5169,VALID,80,VALID,0.386328,
2014-10-30, 02:40:04,VALID,1009.1,VALID,0,INVALID,128.219,VALID,0,VALID,23.5381,VALID,80,VALID,0.114063,
2014-10-30, 02:41:04,VALID,1009.1,VALID,0,INVALID,128.715,VALID,0,VALID,23.5363,VALID,80,VALID,0.161328,
2014-10-30, 02:42:04,VALID,1009.07,VALID,0,INVALID,128.639,VALID,0,VALID,23.5576,VALID,80,VALID,0.382031,
2014-10-30, 02:43:04,VALID,1009.1,VALID,0,INVALID,128.372,VALID,0,VALID,23.5381,VALID,80,VALID,0.670313,
2014-10-30, 02:44:04,VALID,1009.08,VALID,0,INVALID,128.334,VALID,0,VALID,23.5381,VALID,80,VALID,0.2125,
2014-10-30, 02:45:04,VALID,1009.09,VALID,0,INVALID,128.486,VALID,0,VALID,23.5576,VALID,80,VALID,0.363281,
2014-10-30, 02:46:04,VALID,1009.07,VALID,0,INVALID,128.57,VALID,0,VALID,23.5576,VALID,80,VALID,0.480859,
2014-10-30, 02:47:04,VALID,1009.05,VALID,0,INVALID,128.448,VALID,0,VALID,23.5576,VALID,80,VALID,0.582422,
2014-10-30, 02:48:04,VALID,1009.09,VALID,0,INVALID,128.685,VALID,0,VALID,23.5576,VALID,80,VALID,0.486328,
2014-10-30, 02:49:04,VALID,1009.05,VALID,0,INVALID,129.028,VALID,0,VALID,23.5771,VALID,80,VALID,0.406641,
2014-10-30, 02:50:04,VALID,1009.08,VALID,0,INVALID,129.104,VALID,0,VALID,23.5966,VALID,80,VALID,0.506641,
2014-10-30, 02:51:04,VALID,1009.08,VALID,0,INVALID,129.272,VALID,0,VALID,23.6356,VALID,322,VALID,0.997656,
2014-10-30, 02:52:04,VALID,1009.1,VALID,0,INVALID,129.318,VALID,0,VALID,23.6745,VALID,312,VALID,1.34102,
2014-10-30, 02:53:04,VALID,1009.11,VALID,0,INVALID,128.616,VALID,0.112112,VALID,23.6532,VALID,312,VALID,0.858984,
2014-10-30, 02:54:04,VALID,1009.11,VALID,0,INVALID,128.288,VALID,0,VALID,23.694,VALID,312,VALID,1.22695,
2014-10-30, 02:55:04,VALID,1009.07,VALID,0,INVALID,127.678,VALID,0.112112,VALID,23.7117,VALID,312,VALID,0.875781,
2014-10-30, 02:56:04,VALID,1009.06,VALID,0,INVALID,126.976,VALID,0,VALID,23.733,VALID,312,VALID,1.30117,
2014-10-30, 02:57:04,VALID,1009.05,VALID,0,INVALID,126.099,VALID,0.112112,VALID,23.7312,VALID,312,VALID,0.822656,
2014-10-30, 02:58:04,VALID,1009.04,VALID,0,INVALID,125.36,VALID,0,VALID,23.7525,VALID,312,VALID,0.456641,
2014-10-30, 02:59:04,VALID,1009.06,VALID,0,INVALID,124.742,VALID,0,VALID,23.7312,VALID,312,VALID,0.469531,
2014-10-30, 03:00:04,VALID,1009.07,VALID,0,INVALID,124.719,VALID,0.112112,VALID,23.772,VALID,312,VALID,0.650391,
2014-10-30, 03:01:04,VALID,1009.06,VALID,0,INVALID,124.3,VALID,0,VALID,23.7525,VALID,312,VALID,0.566016,
2014-10-30, 03:02:04,VALID,1009.02,VALID,0,INVALID,123.903,VALID,0,VALID,23.7525,VALID,312,VALID,0.0503906,
2014-10-30, 03:03:04,VALID,1008.99,VALID,0,INVALID,123.896,VALID,0.112112,VALID,23.7525,VALID,312,VALID,0,
2014-10-30, 03:04:04,VALID,1009.04,VALID,0,INVALID,123.575,VALID,0,VALID,23.7543,VALID,312,VALID,0.445313,
2014-10-30, 03:05:04,VALID,1009.02,VALID,0,INVALID,123.438,VALID,0,VALID,23.733,VALID,312,VALID,0.258984,
2014-10-30, 03:06:04,VALID,1009.04,VALID,0,INVALID,123.4,VALID,0,VALID,23.7117,VALID,312,VALID,0.300781,
2014-10-30, 03:07:04,VALID,1009.05,VALID,0,INVALID,123.217,VALID,0.112112,VALID,23.7135,VALID,312,VALID,0.102344,
2014-10-30, 03:08:04,VALID,1009.05,VALID,0,INVALID,123.286,VALID,0,VALID,23.7135,VALID,312,VALID,0.0632813,
2014-10-30, 03:09:04,VALID,1009.04,VALID,0,INVALID,123.331,VALID,0,VALID,23.6727,VALID,312,VALID,0.0140625,
2014-10-30, 03:10:04,VALID,1009.03,VALID,0,INVALID,123.423,VALID,0,VALID,23.6745,VALID,312,VALID,0.378516,
2014-10-30, 03:11:04,VALID,1009,VALID,0,INVALID,123.751,VALID,0,VALID,23.655,VALID,312,VALID,0.802344,
2014-10-30, 03:12:04,VALID,1009,VALID,0,INVALID,124.17,VALID,0,VALID,23.6356,VALID,312,VALID,0.496094,
2014-10-30, 03:13:04,VALID,1008.98,VALID,0,INVALID,124.628,VALID,0,VALID,23.6356,VALID,312,VALID,0.50625,
2014-10-30, 03:14:04,VALID,1008.96,VALID,0,INVALID,125.039,VALID,0,VALID,23.6161,VALID,312,VALID,0.5875,
2014-10-30, 03:15:04,VALID,1008.94,VALID,0,INVALID,125.718,VALID,0,VALID,23.5771,VALID,312,VALID,0.609375,
2014-10-30, 03:16:04,VALID,1008.94,VALID,0,INVALID,126.412,VALID,0,VALID,23.5363,VALID,312,VALID,0.502344,
2014-10-30, 03:17:04,VALID,1008.97,VALID,0,INVALID,127.098,VALID,0,VALID,23.5381,VALID,312,VALID,0.670313,
2014-10-30, 03:18:04,VALID,1008.98,VALID,0,INVALID,127.785,VALID,0,VALID,23.5169,VALID,312,VALID,0.704297,
2014-10-30, 03:19:04,VALID,1008.98,VALID,0,INVALID,128.296,VALID,0,VALID,23.4974,VALID,312,VALID,0.414063,
2014-10-30, 03:20:04,VALID,1009.03,VALID,0,INVALID,128.784,VALID,0,VALID,23.4779,VALID,312,VALID,0.323047,
2014-10-30, 03:21:04,VALID,1009.04,VALID,0,INVALID,129.249,VALID,0,VALID,23.4779,VALID,312,VALID,0.719141,
2014-10-30, 03:22:04,VALID,1009.05,VALID,0,INVALID,129.745,VALID,0.112112,VALID,23.4584,VALID,312,VALID,0.271094,
2014-10-30, 03:23:04,VALID,1009.05,VALID,0,INVALID,130.316,VALID,0.112112,VALID,23.4797,VALID,312,VALID,0.146484,
2014-10-30, 03:24:04,VALID,1009.04,VALID,0,INVALID,130.461,VALID,0,VALID,23.4797,VALID,312,VALID,0.0921875,
2014-10-30, 03:25:04,VALID,1009.04,VALID,0,INVALID,130.705,VALID,0,VALID,23.4779,VALID,312,VALID,0.0613281,
2014-10-30, 03:26:04,VALID,1009.05,VALID,0,INVALID,130.881,VALID,0,VALID,23.4992,VALID,312,VALID,0,
2014-10-30, 03:27:04,VALID,1009.03,VALID,0,INVALID,131.018,VALID,0,VALID,23.4584,VALID,312,VALID,0,
2014-10-30, 03:28:04,VALID,1009.02,VALID,0,INVALID,131.14,VALID,0,VALID,23.4584,VALID,312,VALID,0.257422,
2014-10-30, 03:29:04,VALID,1008.99,VALID,0,INVALID,131.376,VALID,0,VALID,23.4797,VALID,312,VALID,0,
2014-10-30, 03:30:04,VALID,1008.97,VALID,0,INVALID,131.232,VALID,0.112112,VALID,23.4602,VALID,312,VALID,0.174219,
2014-10-30, 03:31:04,VALID,1008.95,VALID,0,INVALID,131.003,VALID,0,VALID,23.4407,VALID,312,VALID,0.382422,
2014-10-30, 03:32:04,VALID,1008.93,VALID,0,INVALID,130.881,VALID,0,VALID,23.4212,VALID,312,VALID,0.548437,
2014-10-30, 03:33:04,VALID,1008.9,VALID,0,INVALID,131.071,VALID,0,VALID,23.4017,VALID,312,VALID,0.399609,
2014-10-30, 03:34:04,VALID,1008.93,VALID,0,INVALID,131.163,VALID,0,VALID,23.361,VALID,312,VALID,0.336719,
2014-10-30, 03:35:04,VALID,1008.93,VALID,0,INVALID,131.376,VALID,0,VALID,23.3628,VALID,312,VALID,0.1375,
2014-10-30, 03:36:04,VALID,1008.93,VALID,0,INVALID,131.437,VALID,0,VALID,23.3628,VALID,312,VALID,0,
2014-10-30, 03:37:04,VALID,1008.91,VALID,0,INVALID,131.46,VALID,0,VALID,23.3433,VALID,312,VALID,0,
2014-10-30, 03:38:04,VALID,1008.94,VALID,0,INVALID,131.643,VALID,0,VALID,23.3238,VALID,312,VALID,0,
2014-10-30, 03:39:04,VALID,1008.9,VALID,0,INVALID,131.819,VALID,0,VALID,23.3238,VALID,312,VALID,0,
2014-10-30, 03:40:04,VALID,1008.87,VALID,0,INVALID,131.872,VALID,0,VALID,23.3238,VALID,312,VALID,0,
2014-10-30, 03:41:04,VALID,1008.86,VALID,0,INVALID,131.964,VALID,0,VALID,23.3043,VALID,312,VALID,0.400391,
2014-10-30, 03:42:04,VALID,1008.86,VALID,0,INVALID,132.002,VALID,0.112112,VALID,23.3026,VALID,312,VALID,0.627344,
2014-10-30, 03:43:04,VALID,1008.87,VALID,0,INVALID,132.177,VALID,0,VALID,23.3238,VALID,312,VALID,0.929297,